Location: Jangalapalle
(16.8036°N, 80.6370°E)
Time: 11:55:33
(UTC+00:00)

Cosmos 1674 Rocket - Pass Details

Date: 05 August 2024
Orbit: 599 x 625 km, 82.5° (Epoch: 08 September)

Event Time Altitude Azimuth Distance (km) Brightness Sun altitude
Rises 23:44:13 0° 346° (NNW) 2,902 7.1 -8.7°
Reaches altitude 10° 23:46:31 10° 340° (NNW) 1,993 6.2 -8.2°
Maximum altitude 23:50:44 46° 267° (W) 839 3.8 -7.3°
Drops below altitude 10° 23:54:57 10° 194° (SSW) 1,981 5.8 -6.3°
Sets 23:57:13 0° 188° (S) 2,881 6.7 -5.8°
